Location: Newark
(47.5989°N, 4.6950°E)
Time: 05:22:01
(UTC+00:00)

Envisat - Pass Details

Date: 22 November 2019
Orbit: 764 x 766 km, 98.1° (Epoch: 09 December)

Event Time Altitude Azimuth Distance (km) Brightness Sun altitude
Rises 17:04:51 0° 151° (SSE) 3,221 6.1 -11.1°
Reaches altitude 10° 17:07:11 10° 147° (SSE) 2,299 5.3 -11.5°
Maximum altitude 17:12:07 55° 70° (ENE) 924 3.1 -12.3°
Drops below altitude 10° 17:17:04 10° 354° (N) 2,314 5.4 -13.1°
Sets 17:19:25 0° 351° (N) 3,244 6.2 -13.5°
